Flag for Guadeloupe Weather past 2 weeks in Basse-Terre, Guadeloupe

Now
84 °F

Scattered clouds.


Feels Like: 85 °F
Forecast: 72 / 79 °F
Wind: 17 mph from East

Location: Le Raizet - Guadeloupe

Current Time: Feb 28, 2015 at 3:34:27 PM

Latest Report: Feb 28, 2015 at 3:00 PM


Visibility: N/A

Pressure: 30.04 "Hg

Humidity: 48%

Dew point: 63 °F

Location of Basse-TerreLocation

Historic Weather in Basse-Terre — Graph

°F

Basse-Terre temperature yesterday

Maximum temperature yesterday: 82 °F (at 9:07 AM)
Minimum temperature yesterday: 73 °F (at 2:30 AM)
Average temperature yesterday: 77 °F

Past Weeks' High & Low Weather Summary

 TemperatureHumidityPressure
High86 °F (Feb 13, 2:00 PM)94% (Feb 14, 4:30 AM)30.09 "Hg (Feb 14, 4:30 AM)
Low68 °F (Feb 16, 4:00 AM)43% (Feb 19, 2:04 PM)29.92 "Hg (Feb 19, 3:00 PM)
Average77 °F72%30.02 "Hg
* Reported Feb 13 2:00 PM — Feb 28 2:30 PM, Basse-Terre, Weather by CustomWeather, © 2015

Note: Actual official high and low records may vary slightly from our data, if they occured in-between our weather recording intervals... More about our weather records

Advertising

Basse-Terre weather history for previous 24 hours

 ConditionsComfort  
Time TempWeatherWind HumidityBarometerVisibility
2:30 PM
Sat, Feb 28
84 °FScattered clouds.20 mph45%30.04 "HgN/A
2:00 PM82 °FScattered clouds.18 mph48%30.04 "HgN/A
1:30 PM84 °FScattered clouds.18 mph48%30.04 "HgN/A
1:00 PM84 °FScattered clouds.21 mph48%30.07 "HgN/A
12:30 PM84 °FScattered clouds.20 mph43%30.07 "HgN/A
12:00 PM84 °FScattered clouds.21 mph48%30.09 "HgN/A
11:30 AM82 °FScattered clouds.24 mph55%30.09 "HgN/A
11:00 AM82 °FScattered clouds.18 mph58%30.09 "HgN/A
10:30 AM82 °FScattered clouds.21 mph55%30.09 "HgN/A
10:00 AM81 °FScattered clouds.16 mph66%30.09 "HgN/A
9:30 AM81 °FScattered clouds.13 mph66%30.09 "HgN/A
9:00 AM77 °FScattered clouds.8 mph74%30.09 "HgN/A
8:30 AM73 °FBroken clouds.14 mph83%30.09 "HgN/A
8:00 AM77 °FBroken clouds.7 mph79%30.09 "HgN/A
7:30 AM75 °FScattered clouds.6 mph83%30.07 "HgN/A
7:00 AM73 °FBroken clouds.5 mph83%30.07 "HgN/A
6:30 AM72 °FPassing clouds.5 mph88%30.04 "HgN/A
6:00 AM73 °FMostly cloudy.6 mph83%30.04 "HgN/A
5:30 AM75 °FMostly cloudy.6 mph78%30.04 "HgN/A
5:00 AM75 °FPassing clouds.9 mph74%30.04 "HgN/A
4:30 AM75 °FPassing clouds.7 mph74%30.01 "HgN/A
4:00 AM75 °FClear.8 mph74%30.01 "HgN/A
3:30 AM75 °FPartly cloudy.9 mph74%30.01 "HgN/A
3:00 AM75 °FOvercast.7 mph69%30.01 "HgN/A
2:30 AM75 °FMostly cloudy.6 mph74%30.04 "HgN/A
2:00 AM75 °FOvercast.7 mph74%30.04 "HgN/A
1:30 AM73 °FPassing clouds.5 mph78%30.04 "HgN/A
1:00 AM73 °FPassing clouds.6 mph78%30.04 "HgN/A
12:30 AM73 °FClear.5 mph78%30.04 "HgN/A
12:00 AM73 °FClear.6 mph78%30.07 "HgN/A
11:30 PM
Fri, Feb 27
75 °FClear.7 mph74%30.07 "HgN/A
11:00 PM75 °FPassing clouds.8 mph78%30.07 "HgN/A
10:30 PM73 °FClear.7 mph83%30.07 "HgN/A
10:00 PM73 °FClear.6 mph78%30.07 "HgN/A
9:30 PM73 °FClear.8 mph78%30.07 "HgN/A
9:00 PM73 °FOvercast.8 mph78%30.07 "HgN/A
8:30 PM73 °FPartly cloudy.15 mph83%30.07 "HgN/A
8:00 PM73 °FPartly cloudy.8 mph83%30.04 "HgN/A
7:00 PM77 °FPassing clouds.7 mph69%30.04 "HgN/A
6:30 PM77 °FPassing clouds.7 mph69%30.01 "HgN/A
6:00 PM79 °FScattered clouds.12 mph65%30.01 "HgN/A
5:30 PM79 °FScattered clouds.15 mph65%30.01 "HgN/A
5:14 PM79 °FScattered clouds.15 mph65%30.01 "HgN/A
4:30 PM79 °FScattered clouds.14 mph70%30.01 "HgN/A
4:00 PM77 °FScattered clouds.13 mph74%30.01 "HgN/A
3:30 PM82 °FScattered clouds.18 mph55%29.98 "HgN/A
3:04 PM81 °FScattered clouds.20 mph58%30.01 "HgN/A
Weather by CustomWeather, © 2015

See weather overviewHow to use our weather pages